Météo par heure à Jumabozor

Ce jour, 20 Juin, Dimanche

Heure Température Précipitation Vent Pression Humidité
00:00 +25°C° 0 mm 2 m/s 715 mmHg 30%
01:00 +25°C° 0 mm 2 m/s 715 mmHg 32%
02:00 +24°C° 0 mm 1 m/s 715 mmHg 33%
03:00 +23°C° 0 mm 2 m/s 716 mmHg 35%
04:00 +21°C° 0 mm 2 m/s 716 mmHg 37%
05:00 +21°C° 0 mm 2 m/s 716 mmHg 38%
06:00 +24°C° 0 mm 3 m/s 716 mmHg 35%
07:00 +25°C° 0 mm 3 m/s 717 mmHg 31%
08:00 +27°C° 0 mm 4 m/s 717 mmHg 28%
09:00 +29°C° 0 mm 4 m/s 717 mmHg 25%
10:00 +30°C° 0 mm 4 m/s 717 mmHg 23%
11:00 +32°C° 0 mm 4 m/s 717 mmHg 20%
12:00 +33°C° 0 mm 3 m/s 717 mmHg 18%
13:00 +34°C° 0 mm 3 m/s 717 mmHg 15%
14:00 +35°C° 0 mm 3 m/s 716 mmHg 13%
15:00 +36°C° 0 mm 3 m/s 716 mmHg 12%
16:00 +36°C° 0 mm 3 m/s 716 mmHg 12%
17:00 +36°C° 0 mm 4 m/s 715 mmHg 11%
18:00 +34°C° 0 mm 4 m/s 715 mmHg 14%
19:00 +31°C° 0 mm 3 m/s 715 mmHg 18%
20:00 +28°C° 0 mm 3 m/s 715 mmHg 21%
21:00 +27°C° 0 mm 2 m/s 716 mmHg 23%
22:00 +26°C° 0 mm 2 m/s 716 mmHg 25%
23:00 +24°C° 0 mm 2 m/s 716 mmHg 27%

Demain, 21 Juin, Lundi

Heure Température Précipitation Vent Pression Humidité
00:00 +24°C° 0 mm 2 m/s 716 mmHg 28%
01:00 +23°C° 0 mm 2 m/s 716 mmHg 28%
02:00 +23°C° 0 mm 1 m/s 716 mmHg 29%
03:00 +21°C° 0 mm 2 m/s 716 mmHg 30%
04:00 +20°C° 0 mm 2 m/s 716 mmHg 31%
05:00 +19°C° 0 mm 2 m/s 717 mmHg 32%
06:00 +21°C° 0 mm 3 m/s 717 mmHg 29%
07:00 +24°C° 0 mm 3 m/s 718 mmHg 26%
08:00 +25°C° 0 mm 3 m/s 718 mmHg 22%
09:00 +27°C° 0 mm 3 m/s 718 mmHg 20%
10:00 +29°C° 0 mm 4 m/s 719 mmHg 18%
11:00 +32°C° 0 mm 4 m/s 719 mmHg 16%
12:00 +33°C° 0 mm 3 m/s 719 mmHg 15%
13:00 +34°C° 0 mm 3 m/s 718 mmHg 13%
14:00 +36°C° 0 mm 3 m/s 718 mmHg 12%
15:00 +36°C° 0 mm 3 m/s 718 mmHg 11%
16:00 +36°C° 0 mm 3 m/s 718 mmHg 10%
17:00 +36°C° 0 mm 3 m/s 718 mmHg 9%
18:00 +34°C° 0 mm 3 m/s 717 mmHg 11%
19:00 +31°C° 0 mm 3 m/s 717 mmHg 14%
20:00 +29°C° 0 mm 3 m/s 717 mmHg 17%
21:00 +27°C° 0 mm 3 m/s 717 mmHg 19%
22:00 +26°C° 0 mm 2 m/s 717 mmHg 22%
23:00 +25°C° 0 mm 2 m/s 718 mmHg 24%

Après-demain, 22 Juin, Mardi

Heure Température Précipitation Vent Pression Humidité
00:00 +24°C° 0 mm 2 m/s 717 mmHg 25%
01:00 +24°C° 0 mm 2 m/s 717 mmHg 25%
02:00 +23°C° 0 mm 1 m/s 717 mmHg 26%
03:00 +23°C° 0 mm 2 m/s 717 mmHg 26%
04:00 +23°C° 0 mm 2 m/s 717 mmHg 27%
05:00 +21°C° 0 mm 2 m/s 717 mmHg 27%
06:00 +25°C° 0 mm 2 m/s 718 mmHg 25%
07:00 +27°C° 0 mm 1 m/s 718 mmHg 23%
08:00 +29°C° 0 mm 1 m/s 719 mmHg 21%
09:00 +31°C° 0 mm 2 m/s 719 mmHg 20%
10:00 +34°C° 0 mm 3 m/s 719 mmHg 20%
11:00 +35°C° 0 mm 3 m/s 719 mmHg 20%
12:00 +36°C° 0 mm 4 m/s 718 mmHg 19%
13:00 +37°C° 0 mm 4 m/s 718 mmHg 18%
14:00 +38°C° 0 mm 4 m/s 718 mmHg 16%
15:00 +37°C° 0 mm 5 m/s 718 mmHg 16%
16:00 +37°C° 0 mm 5 m/s 717 mmHg 16%
17:00 +38°C° 0 mm 6 m/s 717 mmHg 15%
18:00 +35°C° 0 mm 6 m/s 717 mmHg 16%
19:00 +33°C° 0 mm 5 m/s 717 mmHg 17%
20:00 +29°C° 0 mm 4 m/s 717 mmHg 18%
21:00 +28°C° 0 mm 4 m/s 717 mmHg 21%
22:00 +26°C° 0 mm 3 m/s 717 mmHg 24%
23:00 +24°C° 0 mm 2 m/s 717 mmHg 26%

23 Juin, Mercredi

Heure Température Précipitation Vent Pression Humidité
00:00 +24°C° 0 mm 2 m/s 717 mmHg 27%
01:00 +23°C° 0 mm 2 m/s 717 mmHg 28%
02:00 +23°C° 0 mm 1 m/s 717 mmHg 28%
03:00 +21°C° 0 mm 2 m/s 717 mmHg 30%
04:00 +20°C° 0 mm 2 m/s 717 mmHg 32%
05:00 +19°C° 0 mm 2 m/s 718 mmHg 34%
06:00 +21°C° 0 mm 3 m/s 718 mmHg 31%
07:00 +24°C° 0 mm 3 m/s 718 mmHg 28%
08:00 +26°C° 0 mm 3 m/s 719 mmHg 25%
09:00 +28°C° 0 mm 3 m/s 719 mmHg 22%
10:00 +30°C° 0 mm 4 m/s 719 mmHg 20%
11:00 +33°C° 0 mm 4 m/s 719 mmHg 17%
12:00 +34°C° 0 mm 3 m/s 719 mmHg 15%
13:00 +35°C° 0 mm 3 m/s 719 mmHg 13%
14:00 +36°C° 0 mm 3 m/s 718 mmHg 11%
15:00 +37°C° 0 mm 3 m/s 718 mmHg 10%
16:00 +37°C° 0 mm 3 m/s 718 mmHg 9%
17:00 +37°C° 0 mm 3 m/s 718 mmHg 9%
18:00 +35°C° 0 mm 2 m/s 717 mmHg 11%
19:00 +32°C° 0 mm 2 m/s 717 mmHg 13%
20:00 +29°C° 0 mm 2 m/s 717 mmHg 15%
21:00 +28°C° 0 mm 2 m/s 717 mmHg 17%
22:00 +27°C° 0 mm 2 m/s 717 mmHg 19%
23:00 +25°C° 0 mm 2 m/s 717 mmHg 21%

24 Juin, Jeudi

Heure Température Précipitation Vent Pression Humidité
00:00 +25°C° 0 mm 2 m/s 717 mmHg 21%
01:00 +24°C° 0 mm 2 m/s 717 mmHg 21%
02:00 +24°C° 0 mm 2 m/s 717 mmHg 22%
03:00 +23°C° 0 mm 2 m/s 717 mmHg 23%
04:00 +21°C° 0 mm 2 m/s 717 mmHg 24%
05:00 +21°C° 0 mm 2 m/s 717 mmHg 26%
06:00 +24°C° 0 mm 2 m/s 717 mmHg 24%
07:00 +26°C° 0 mm 2 m/s 718 mmHg 22%
08:00 +28°C° 0 mm 2 m/s 718 mmHg 20%
09:00 +29°C° 0 mm 3 m/s 718 mmHg 18%
10:00 +31°C° 0 mm 3 m/s 718 mmHg 16%
11:00 +34°C° 0 mm 3 m/s 718 mmHg 15%
12:00 +35°C° 0 mm 3 m/s 718 mmHg 13%
13:00 +37°C° 0 mm 3 m/s 718 mmHg 12%
14:00 +38°C° 0 mm 3 m/s 717 mmHg 10%
15:00 +38°C° 0 mm 4 m/s 717 mmHg 11%
16:00 +40°C° 0 mm 5 m/s 717 mmHg 12%
17:00 +40°C° 0 mm 6 m/s 716 mmHg 12%
18:00 +37°C° 0 mm 5 m/s 716 mmHg 16%
19:00 +34°C° 0 mm 5 m/s 716 mmHg 19%
20:00 +32°C° 0 mm 4 m/s 716 mmHg 22%
21:00 +30°C° 0 mm 3 m/s 716 mmHg 25%
22:00 +28°C° 0 mm 3 m/s 716 mmHg 27%
23:00 +27°C° 0 mm 2 m/s 716 mmHg 30%

25 Juin, Vendredi

Heure Température Précipitation Vent Pression Humidité
00:00 +26°C° 0 mm 2 m/s 715 mmHg 31%
01:00 +26°C° 0 mm 2 m/s 715 mmHg 32%
02:00 +25°C° 0 mm 2 m/s 715 mmHg 33%
03:00 +25°C° 0 mm 1 m/s 715 mmHg 34%
04:00 +25°C° 0 mm 1 m/s 715 mmHg 34%
05:00 +24°C° 0 mm 1 m/s 715 mmHg 35%
06:00 +26°C° 0 mm 1 m/s 715 mmHg 32%
07:00 +28°C° 0 mm 1 m/s 716 mmHg 29%
08:00 +30°C° 0 mm 2 m/s 716 mmHg 26%
09:00 +32°C° 0 mm 2 m/s 716 mmHg 25%
10:00 +34°C° 0 mm 3 m/s 716 mmHg 23%
11:00 +36°C° 0 mm 4 m/s 716 mmHg 22%
12:00 +36°C° 0 mm 4 m/s 716 mmHg 20%
13:00 +37°C° 0 mm 5 m/s 715 mmHg 19%
14:00 +39°C° 0 mm 5 m/s 715 mmHg 17%
15:00 +39°C° 0 mm 5 m/s 715 mmHg 16%
16:00 +39°C° 0 mm 5 m/s 714 mmHg 15%
17:00 +39°C° 0 mm 5 m/s 714 mmHg 15%
18:00 +35°C° 0 mm 5 m/s 714 mmHg 16%
19:00 +33°C° 0 mm 4 m/s 714 mmHg 18%
20:00 +30°C° 0 mm 3 m/s 714 mmHg 19%
21:00 +29°C° 0 mm 3 m/s 714 mmHg 21%
22:00 +27°C° 0 mm 3 m/s 714 mmHg 23%
23:00 +26°C° 0 mm 2 m/s 714 mmHg 24%
Voir plus

Nous avons besoin de votre consentement

Meteoprog et ses fournisseurs de services peuvent stocker et accéder à des données personnelles telles que des cookies, des identifiants d'appareils ou d'autres technologies similaires sur votre appareil et traiter ces données pour personnaliser le contenu et les publicités, ainsi que pour fournir des fonctionnalités de médias sociaux et analyser le trafic.

  • Stocker et/ou accéder à des informations sur votre appareil

    Des cookies, des identifiants d'appareils ou d'autres informations peuvent être stockés ou accessibles sur votre appareil aux fins indiquées ci-dessus.

  • Annonces et contenus personnalisés, mesure des annonces et des contenus, connaissance de l'audience et développement de produits

    Les annonces et le contenu peuvent être personnalisés en fonction d'un profil. D'autres données peuvent être ajoutées pour mieux personnaliser les annonces et le contenu. Les performances des publicités et du contenu peuvent être mesurées. Il est possible d'obtenir des informations sur le public qui a vu les publicités et le contenu. Ces données peuvent être utilisées pour développer ou améliorer l'expérience de l'utilisateur, les systèmes et les logiciels.

En cliquant sur "J'accepte", vous autorisez l'utilisation de cookies, des identifiants d'appareils, des balises web ou d'autres technologies similaires. Vos paramètres peuvent être modifiés dans le navigateur de votre appareil.

Dans certains cas, des intérêts légitimes peuvent être invoqués plutôt qu'un consentement. Vous pouvez en savoir plus à ce sujet dans notre Politique de confidentialité et de cookies.